Year,Month,Day,Hour,Minute,Value (Times are PST for temperature in C)
2010,07,31,00,00,15.70
2010,07,31,00,01,15.70
2010,07,31,00,02,15.60
2010,07,31,00,03,15.60
2010,07,31,00,04,15.60
2010,07,31,00,05,15.50
2010,07,31,00,06,15.50
2010,07,31,00,07,15.50
2010,07,31,00,08,15.40
2010,07,31,00,09,15.40
2010,07,31,00,10,15.40
2010,07,31,00,11,15.30
2010,07,31,00,12,15.30
2010,07,31,00,13,15.30
2010,07,31,00,14,15.30
2010,07,31,00,15,15.30
2010,07,31,00,16,15.30
2010,07,31,00,17,15.30
2010,07,31,00,18,15.30
2010,07,31,00,19,15.30
2010,07,31,00,20,15.30
2010,07,31,00,21,15.30
2010,07,31,00,22,15.30
2010,07,31,00,23,15.30
2010,07,31,00,24,15.30
2010,07,31,00,25,15.30
2010,07,31,00,26,15.20
2010,07,31,00,27,15.20
2010,07,31,00,28,15.20
2010,07,31,00,29,15.20
2010,07,31,00,30,15.10
2010,07,31,00,31,15.10
2010,07,31,00,32,15.10
2010,07,31,00,33,15.00
2010,07,31,00,34,15.00
2010,07,31,00,35,15.00
2010,07,31,00,36,14.90
2010,07,31,00,37,14.90
2010,07,31,00,38,14.90
2010,07,31,00,39,14.80
2010,07,31,00,40,14.80
2010,07,31,00,41,14.80
2010,07,31,00,42,14.80
2010,07,31,00,43,14.80
2010,07,31,00,44,14.80
2010,07,31,00,45,14.80
2010,07,31,00,46,14.80
2010,07,31,00,47,14.70
2010,07,31,00,48,14.70
2010,07,31,00,49,14.70
2010,07,31,00,50,14.70
2010,07,31,00,51,14.70
2010,07,31,00,52,14.60
2010,07,31,00,53,14.60
2010,07,31,00,54,14.60
2010,07,31,00,55,14.60
2010,07,31,00,56,14.60
2010,07,31,00,57,14.60
2010,07,31,00,58,14.50
2010,07,31,00,59,14.50
2010,07,31,01,00,14.50
2010,07,31,01,01,14.40
2010,07,31,01,02,14.40
2010,07,31,01,03,14.40
2010,07,31,01,04,14.30
2010,07,31,01,05,14.30
2010,07,31,01,06,14.30
2010,07,31,01,07,14.20
2010,07,31,01,08,14.20
2010,07,31,01,09,14.20
2010,07,31,01,10,14.20
2010,07,31,01,11,14.20
2010,07,31,01,12,14.20
2010,07,31,01,13,14.20
2010,07,31,01,14,14.20
2010,07,31,01,15,14.20
2010,07,31,01,16,14.20
2010,07,31,01,17,14.20
2010,07,31,01,18,14.10
2010,07,31,01,19,14.10
2010,07,31,01,20,14.10
2010,07,31,01,21,14.10
2010,07,31,01,22,14.10
2010,07,31,01,23,14.10
2010,07,31,01,24,14.00
2010,07,31,01,25,14.00
2010,07,31,01,26,14.00
2010,07,31,01,27,14.00
2010,07,31,01,28,14.00
2010,07,31,01,29,14.00
2010,07,31,01,30,13.90
2010,07,31,01,31,13.90
2010,07,31,01,32,13.90
2010,07,31,01,33,13.90
2010,07,31,01,34,13.90
2010,07,31,01,35,13.90
2010,07,31,01,36,13.90
2010,07,31,01,37,13.90
2010,07,31,01,38,13.90
2010,07,31,01,39,13.90
2010,07,31,01,40,13.90
2010,07,31,01,41,13.80
2010,07,31,01,42,13.80
2010,07,31,01,43,13.80
2010,07,31,01,44,13.80
2010,07,31,01,45,13.80
2010,07,31,01,46,13.80
2010,07,31,01,47,13.80
2010,07,31,01,48,13.80
2010,07,31,01,49,13.80
2010,07,31,01,50,13.70
2010,07,31,01,51,13.70
2010,07,31,01,52,13.70
2010,07,31,01,53,13.70
2010,07,31,01,54,13.70
2010,07,31,01,55,13.70
2010,07,31,01,56,13.70
2010,07,31,01,57,13.70
2010,07,31,01,58,13.70
2010,07,31,01,59,13.70
2010,07,31,02,00,13.70
2010,07,31,02,01,13.70
2010,07,31,02,02,13.60
2010,07,31,02,03,13.60
2010,07,31,02,04,13.60
2010,07,31,02,05,13.60
2010,07,31,02,06,13.60
2010,07,31,02,07,13.60
2010,07,31,02,08,13.60
2010,07,31,02,09,13.60
2010,07,31,02,10,13.50
2010,07,31,02,11,13.50
2010,07,31,02,12,13.50
2010,07,31,02,13,13.50
2010,07,31,02,14,13.50
2010,07,31,02,15,13.50
2010,07,31,02,16,13.50
2010,07,31,02,17,13.50
2010,07,31,02,18,13.50
2010,07,31,02,19,13.40
2010,07,31,02,20,13.40
2010,07,31,02,21,13.40
2010,07,31,02,22,13.40
2010,07,31,02,23,13.40
2010,07,31,02,24,13.40
2010,07,31,02,25,13.40
2010,07,31,02,26,13.40
2010,07,31,02,27,13.40
2010,07,31,02,28,13.30
2010,07,31,02,29,13.30
2010,07,31,02,30,13.30
2010,07,31,02,31,13.30
2010,07,31,02,32,13.30
2010,07,31,02,33,13.30
2010,07,31,02,34,13.30
2010,07,31,02,35,13.30
2010,07,31,02,36,13.30
2010,07,31,02,37,13.30
2010,07,31,02,38,13.30
2010,07,31,02,39,13.20
2010,07,31,02,40,13.20
2010,07,31,02,41,13.20
2010,07,31,02,42,13.20
2010,07,31,02,43,13.20
2010,07,31,02,44,13.10
2010,07,31,02,45,13.10
2010,07,31,02,46,13.10
2010,07,31,02,47,13.10
2010,07,31,02,48,13.10
2010,07,31,02,49,13.10
2010,07,31,02,50,13.10
2010,07,31,02,51,13.10
2010,07,31,02,52,13.10
2010,07,31,02,53,13.10
2010,07,31,02,54,13.10
2010,07,31,02,55,13.10
2010,07,31,02,56,13.10
2010,07,31,02,57,13.10
2010,07,31,02,58,13.10
2010,07,31,02,59,13.10
2010,07,31,03,00,13.10
2010,07,31,03,01,13.10
2010,07,31,03,02,13.10
2010,07,31,03,03,13.10
2010,07,31,03,04,13.10
2010,07,31,03,05,13.10
2010,07,31,03,06,13.10
2010,07,31,03,07,13.00
2010,07,31,03,08,13.00
2010,07,31,03,09,13.00
2010,07,31,03,10,13.00
2010,07,31,03,11,13.00
2010,07,31,03,12,13.00
2010,07,31,03,13,13.00
2010,07,31,03,14,12.90
2010,07,31,03,15,12.90
2010,07,31,03,16,12.90
2010,07,31,03,17,12.90
2010,07,31,03,18,12.90
2010,07,31,03,19,12.90
2010,07,31,03,20,12.90
2010,07,31,03,21,12.90
2010,07,31,03,22,12.90
2010,07,31,03,23,12.90
2010,07,31,03,24,12.80
2010,07,31,03,25,12.80
2010,07,31,03,26,12.80
2010,07,31,03,27,12.80
2010,07,31,03,28,12.80
2010,07,31,03,29,12.80
2010,07,31,03,30,12.70
2010,07,31,03,31,12.70
2010,07,31,03,32,12.60
2010,07,31,03,33,12.60
2010,07,31,03,34,12.60
2010,07,31,03,35,12.50
2010,07,31,03,36,12.50
2010,07,31,03,37,12.50
2010,07,31,03,38,12.40
2010,07,31,03,39,12.40
2010,07,31,03,40,12.40
2010,07,31,03,41,12.40
2010,07,31,03,42,12.40
2010,07,31,03,43,12.30
2010,07,31,03,44,12.30
2010,07,31,03,45,12.30
2010,07,31,03,46,12.30
2010,07,31,03,47,12.30
2010,07,31,03,48,12.30
2010,07,31,03,49,12.30
2010,07,31,03,50,12.30
2010,07,31,03,51,12.30
2010,07,31,03,52,12.30
2010,07,31,03,53,12.30
2010,07,31,03,54,12.30
2010,07,31,03,55,12.20
2010,07,31,03,56,12.20
2010,07,31,03,57,12.20
2010,07,31,03,58,12.20
2010,07,31,03,59,12.20
2010,07,31,04,00,12.20
2010,07,31,04,01,12.10
2010,07,31,04,02,12.10
2010,07,31,04,03,12.10
2010,07,31,04,04,12.10
2010,07,31,04,05,12.10
2010,07,31,04,06,12.00
2010,07,31,04,07,12.00
2010,07,31,04,08,12.00
2010,07,31,04,09,12.10
2010,07,31,04,10,12.10
2010,07,31,04,11,12.10
2010,07,31,04,12,12.10
2010,07,31,04,13,12.10
2010,07,31,04,14,12.10
2010,07,31,04,15,12.10
2010,07,31,04,16,12.10
2010,07,31,04,17,12.10
2010,07,31,04,18,12.10
2010,07,31,04,19,12.10
2010,07,31,04,20,12.10
2010,07,31,04,21,12.10
2010,07,31,04,22,12.10
2010,07,31,04,23,12.10
2010,07,31,04,24,12.10
2010,07,31,04,25,12.10
2010,07,31,04,26,12.00
2010,07,31,04,27,12.00
2010,07,31,04,28,12.00
2010,07,31,04,29,12.00
2010,07,31,04,30,12.00
2010,07,31,04,31,12.00
2010,07,31,04,32,12.00
2010,07,31,04,33,12.00
2010,07,31,04,34,12.00
2010,07,31,04,35,12.00
2010,07,31,04,36,12.00
2010,07,31,04,37,11.90
2010,07,31,04,38,11.90
2010,07,31,04,39,11.90
2010,07,31,04,40,11.90
2010,07,31,04,41,11.90
2010,07,31,04,42,11.80
2010,07,31,04,43,11.80
2010,07,31,04,44,11.80
2010,07,31,04,45,11.80
2010,07,31,04,46,11.80
2010,07,31,04,47,11.70
2010,07,31,04,48,11.70
2010,07,31,04,49,11.70
2010,07,31,04,50,11.70
2010,07,31,04,51,11.70
2010,07,31,04,52,11.70
2010,07,31,04,53,11.70
2010,07,31,04,54,11.70
2010,07,31,04,55,11.70
2010,07,31,04,56,11.70
2010,07,31,04,57,11.70
2010,07,31,04,58,11.70
2010,07,31,04,59,11.70
2010,07,31,05,00,11.70
2010,07,31,05,01,11.80
2010,07,31,05,02,11.80
2010,07,31,05,03,11.80
2010,07,31,05,04,11.80
2010,07,31,05,05,11.80
2010,07,31,05,06,11.80
2010,07,31,05,07,11.80
2010,07,31,05,08,11.80
2010,07,31,05,09,11.80
2010,07,31,05,10,11.80
2010,07,31,05,11,11.80
2010,07,31,05,12,11.80
2010,07,31,05,13,11.80
2010,07,31,05,14,11.80
2010,07,31,05,15,11.80
2010,07,31,05,16,11.80
2010,07,31,05,17,11.80
2010,07,31,05,18,11.80
2010,07,31,05,19,11.80
2010,07,31,05,20,11.80
2010,07,31,05,21,11.80
2010,07,31,05,22,11.80
2010,07,31,05,23,11.80
2010,07,31,05,24,11.80
2010,07,31,05,25,11.80
2010,07,31,05,26,11.80
2010,07,31,05,27,11.80
2010,07,31,05,28,11.80
2010,07,31,05,29,11.80
2010,07,31,05,30,11.80
2010,07,31,05,31,11.80
2010,07,31,05,32,11.80
2010,07,31,05,33,11.80
2010,07,31,05,34,11.80
2010,07,31,05,35,11.80
2010,07,31,05,36,11.80
2010,07,31,05,37,11.80
2010,07,31,05,38,11.80
2010,07,31,05,39,11.80
2010,07,31,05,40,11.80
2010,07,31,05,41,11.80
2010,07,31,05,42,11.80
2010,07,31,05,43,11.80
2010,07,31,05,44,11.80
2010,07,31,05,45,11.80
2010,07,31,05,46,11.80
2010,07,31,05,47,11.80
2010,07,31,05,48,11.80
2010,07,31,05,49,11.80
2010,07,31,05,50,11.80
2010,07,31,05,51,11.80
2010,07,31,05,52,11.80
2010,07,31,05,53,11.80
2010,07,31,05,54,11.80
2010,07,31,05,55,11.80
2010,07,31,05,56,11.80
2010,07,31,05,57,11.80
2010,07,31,05,58,11.80
2010,07,31,05,59,11.80
2010,07,31,06,00,11.80
2010,07,31,06,01,11.80
2010,07,31,06,02,11.80
2010,07,31,06,03,11.80
2010,07,31,06,04,11.80
2010,07,31,06,05,11.80
2010,07,31,06,06,11.80
2010,07,31,06,07,11.80
2010,07,31,06,08,11.80
2010,07,31,06,09,11.80
2010,07,31,06,10,11.80
2010,07,31,06,11,11.80
2010,07,31,06,12,11.80
2010,07,31,06,13,11.80
2010,07,31,06,14,11.80
2010,07,31,06,15,11.80
2010,07,31,06,16,11.80
2010,07,31,06,17,11.80
2010,07,31,06,18,11.90
2010,07,31,06,19,11.90
2010,07,31,06,20,11.90
2010,07,31,06,21,11.90
2010,07,31,06,22,11.90
2010,07,31,06,23,12.00
2010,07,31,06,24,12.00
2010,07,31,06,25,12.00
2010,07,31,06,26,12.00
2010,07,31,06,27,12.00
2010,07,31,06,28,12.10
2010,07,31,06,29,12.10
2010,07,31,06,30,12.10
2010,07,31,06,31,12.10
2010,07,31,06,32,12.20
2010,07,31,06,33,12.20
2010,07,31,06,34,12.30
2010,07,31,06,35,12.30
2010,07,31,06,36,12.40
2010,07,31,06,37,12.40
2010,07,31,06,38,12.50
2010,07,31,06,39,12.50
2010,07,31,06,40,12.60
2010,07,31,06,41,12.60
2010,07,31,06,42,12.60
2010,07,31,06,43,12.70
2010,07,31,06,44,12.70
2010,07,31,06,45,12.80
2010,07,31,06,46,12.80
2010,07,31,06,47,12.80
2010,07,31,06,48,12.80
2010,07,31,06,49,12.90
2010,07,31,06,50,12.90
2010,07,31,06,51,13.00
2010,07,31,06,52,13.00
2010,07,31,06,53,13.10
2010,07,31,06,54,13.10
2010,07,31,06,55,13.20
2010,07,31,06,56,13.20
2010,07,31,06,57,13.20
2010,07,31,06,58,13.20
2010,07,31,06,59,13.20
2010,07,31,07,00,13.20
2010,07,31,07,01,13.20
2010,07,31,07,02,13.20
2010,07,31,07,03,13.20
2010,07,31,07,04,13.30
2010,07,31,07,05,13.30
2010,07,31,07,06,13.30
2010,07,31,07,07,13.30
2010,07,31,07,08,13.40
2010,07,31,07,09,13.40
2010,07,31,07,10,13.40
2010,07,31,07,11,13.40
2010,07,31,07,12,13.50
2010,07,31,07,13,13.50
2010,07,31,07,14,13.60
2010,07,31,07,15,13.70
2010,07,31,07,16,13.80
2010,07,31,07,17,13.80
2010,07,31,07,18,13.90
2010,07,31,07,19,14.00
2010,07,31,07,20,14.10
2010,07,31,07,21,14.20
2010,07,31,07,22,14.20
2010,07,31,07,23,14.20
2010,07,31,07,24,14.20
2010,07,31,07,25,14.20
2010,07,31,07,26,14.20
2010,07,31,07,27,14.20
2010,07,31,07,28,14.20
2010,07,31,07,29,14.20
2010,07,31,07,30,14.20
2010,07,31,07,31,14.30
2010,07,31,07,32,14.30
2010,07,31,07,33,14.40
2010,07,31,07,34,14.50
2010,07,31,07,35,14.60
2010,07,31,07,36,14.70
2010,07,31,07,37,14.80
2010,07,31,07,38,14.80
2010,07,31,07,39,14.80
2010,07,31,07,40,14.90
2010,07,31,07,41,14.90
2010,07,31,07,42,14.90
2010,07,31,07,43,15.00
2010,07,31,07,44,15.10
2010,07,31,07,45,15.20
2010,07,31,07,46,15.30
2010,07,31,07,47,15.40
2010,07,31,07,48,15.50
2010,07,31,07,49,15.50
2010,07,31,07,50,15.60
2010,07,31,07,51,15.60
2010,07,31,07,52,15.70
2010,07,31,07,53,15.80
2010,07,31,07,54,15.80
2010,07,31,07,55,15.80
2010,07,31,07,56,15.90
2010,07,31,07,57,16.00
2010,07,31,07,58,16.10
2010,07,31,07,59,16.10
2010,07,31,08,00,16.20
2010,07,31,08,01,16.20
2010,07,31,08,02,16.30
2010,07,31,08,03,16.30
2010,07,31,08,04,16.40
2010,07,31,08,05,16.40
2010,07,31,08,06,16.40
2010,07,31,08,07,16.40
2010,07,31,08,08,16.40
2010,07,31,08,09,16.40
2010,07,31,08,10,16.40
2010,07,31,08,11,16.50
2010,07,31,08,12,16.60
2010,07,31,08,13,16.70
2010,07,31,08,14,16.70
2010,07,31,08,15,16.80
2010,07,31,08,16,16.90
2010,07,31,08,17,16.90
2010,07,31,08,18,16.90
2010,07,31,08,19,17.00
2010,07,31,08,20,17.00
2010,07,31,08,21,17.10
2010,07,31,08,22,17.20
2010,07,31,08,23,17.30
2010,07,31,08,24,17.30
2010,07,31,08,25,17.30
2010,07,31,08,26,17.30
2010,07,31,08,27,17.30
2010,07,31,08,28,17.30
2010,07,31,08,29,17.30
2010,07,31,08,30,17.30
2010,07,31,08,31,17.30
2010,07,31,08,32,17.30
2010,07,31,08,33,17.30
2010,07,31,08,34,17.40
2010,07,31,08,35,17.50
2010,07,31,08,36,17.50
2010,07,31,08,37,17.50
2010,07,31,08,38,17.50
2010,07,31,08,39,17.50
2010,07,31,08,40,17.50
2010,07,31,08,41,17.60
2010,07,31,08,42,17.70
2010,07,31,08,43,17.70
2010,07,31,08,44,17.80
2010,07,31,08,45,17.80
2010,07,31,08,46,17.90
2010,07,31,08,47,17.90
2010,07,31,08,48,17.90
2010,07,31,08,49,18.00
2010,07,31,08,50,18.10
2010,07,31,08,51,18.10
2010,07,31,08,52,18.20
2010,07,31,08,53,18.30
2010,07,31,08,54,18.40
2010,07,31,08,55,18.40
2010,07,31,08,56,18.40
2010,07,31,08,57,18.40
2010,07,31,08,58,18.40
2010,07,31,08,59,18.40
2010,07,31,09,00,18.40
2010,07,31,09,01,18.40
2010,07,31,09,02,18.40
2010,07,31,09,03,18.40
2010,07,31,09,04,18.40
2010,07,31,09,05,18.40
2010,07,31,09,06,18.40
2010,07,31,09,07,18.40
2010,07,31,09,08,18.40
2010,07,31,09,09,18.40
2010,07,31,09,10,18.40
2010,07,31,09,11,18.40
2010,07,31,09,12,18.50
2010,07,31,09,13,18.50
2010,07,31,09,14,18.60
2010,07,31,09,15,18.70
2010,07,31,09,16,18.70
2010,07,31,09,17,18.70
2010,07,31,09,18,18.70
2010,07,31,09,19,18.70
2010,07,31,09,20,18.90
2010,07,31,09,21,18.90
2010,07,31,09,22,18.90
2010,07,31,09,23,18.90
2010,07,31,09,24,18.90
2010,07,31,09,25,18.90
2010,07,31,09,26,18.90
2010,07,31,09,27,18.90
2010,07,31,09,28,18.90
2010,07,31,09,29,19.00
2010,07,31,09,30,19.10
2010,07,31,09,31,19.10
2010,07,31,09,32,19.10
2010,07,31,09,33,19.10
2010,07,31,09,34,19.10
2010,07,31,09,35,19.10
2010,07,31,09,36,19.10
2010,07,31,09,37,19.10
2010,07,31,09,38,19.20
2010,07,31,09,39,19.20
2010,07,31,09,40,19.20
2010,07,31,09,41,19.20
2010,07,31,09,42,19.20
2010,07,31,09,43,19.10
2010,07,31,09,44,19.10
2010,07,31,09,45,19.10
2010,07,31,09,46,19.10
2010,07,31,09,47,19.10
2010,07,31,09,48,19.10
2010,07,31,09,49,19.10
2010,07,31,09,50,19.00
2010,07,31,09,51,18.90
2010,07,31,09,52,18.90
2010,07,31,09,53,18.90
2010,07,31,09,54,19.00
2010,07,31,09,55,19.10
2010,07,31,09,56,19.10
2010,07,31,09,57,19.20
2010,07,31,09,58,19.30
2010,07,31,09,59,19.40
2010,07,31,10,00,19.40
2010,07,31,10,01,19.50
2010,07,31,10,02,19.50
2010,07,31,10,03,19.50
2010,07,31,10,04,19.50
2010,07,31,10,05,19.50
2010,07,31,10,06,19.50
2010,07,31,10,07,19.50
2010,07,31,10,08,19.60
2010,07,31,10,09,19.60
2010,07,31,10,10,19.60
2010,07,31,10,11,19.60
2010,07,31,10,12,19.60
2010,07,31,10,13,19.50
2010,07,31,10,14,19.50
2010,07,31,10,15,19.50
2010,07,31,10,16,19.50
2010,07,31,10,17,19.50
2010,07,31,10,18,19.60
2010,07,31,10,19,19.70
2010,07,31,10,20,19.70
2010,07,31,10,21,19.80
2010,07,31,10,22,19.80
2010,07,31,10,23,19.70
2010,07,31,10,24,19.70
2010,07,31,10,25,19.70
2010,07,31,10,26,19.70
2010,07,31,10,27,19.80
2010,07,31,10,28,19.80
2010,07,31,10,29,19.90
2010,07,31,10,30,19.90
2010,07,31,10,31,19.90
2010,07,31,10,32,19.90
2010,07,31,10,33,20.00
2010,07,31,10,34,20.00
2010,07,31,10,35,20.00
2010,07,31,10,36,20.10
2010,07,31,10,37,20.20
2010,07,31,10,38,20.20
2010,07,31,10,39,20.20
2010,07,31,10,40,20.20
2010,07,31,10,41,20.10
2010,07,31,10,42,20.20
2010,07,31,10,43,20.20
2010,07,31,10,44,20.10
2010,07,31,10,45,20.10
2010,07,31,10,46,20.00
2010,07,31,10,47,19.90
2010,07,31,10,48,19.90
2010,07,31,10,49,19.90
2010,07,31,10,50,19.90
2010,07,31,10,51,19.90
2010,07,31,10,52,19.80
2010,07,31,10,53,19.80
2010,07,31,10,54,19.80
2010,07,31,10,55,19.90
2010,07,31,10,56,19.80
2010,07,31,10,57,19.80
2010,07,31,10,58,19.60
2010,07,31,10,59,19.40
2010,07,31,11,00,19.20
2010,07,31,11,01,19.00
2010,07,31,11,02,18.90
2010,07,31,11,03,18.90
2010,07,31,11,04,18.90
2010,07,31,11,05,19.00
2010,07,31,11,06,18.90
2010,07,31,11,07,18.90
2010,07,31,11,08,18.90
2010,07,31,11,09,18.90
2010,07,31,11,10,19.00
2010,07,31,11,11,19.10
2010,07,31,11,12,19.10
2010,07,31,11,13,19.10
2010,07,31,11,14,19.10
2010,07,31,11,15,19.20
2010,07,31,11,16,19.30
2010,07,31,11,17,19.40
2010,07,31,11,18,19.50
2010,07,31,11,19,19.60
2010,07,31,11,20,19.60
2010,07,31,11,21,19.50
2010,07,31,11,22,19.40
2010,07,31,11,23,19.30
2010,07,31,11,24,19.20
2010,07,31,11,25,19.20
2010,07,31,11,26,19.10
2010,07,31,11,27,19.10
2010,07,31,11,28,19.10
2010,07,31,11,29,18.90
2010,07,31,11,30,18.80
2010,07,31,11,31,18.70
2010,07,31,11,32,18.70
2010,07,31,11,33,18.70
2010,07,31,11,34,18.70
2010,07,31,11,35,18.70
2010,07,31,11,36,18.80
2010,07,31,11,37,18.80
2010,07,31,11,38,18.80
2010,07,31,11,39,18.80
2010,07,31,11,40,18.80
2010,07,31,11,41,18.80
2010,07,31,11,42,18.80
2010,07,31,11,43,18.90
2010,07,31,11,44,19.00
2010,07,31,11,45,19.10
2010,07,31,11,46,19.20
2010,07,31,11,47,19.30
2010,07,31,11,48,19.40
2010,07,31,11,49,19.40
2010,07,31,11,50,19.40
2010,07,31,11,51,19.40
2010,07,31,11,52,19.30
2010,07,31,11,53,19.20
2010,07,31,11,54,19.20
2010,07,31,11,55,19.10
2010,07,31,11,56,19.10
2010,07,31,11,57,19.00
2010,07,31,11,58,18.90
2010,07,31,11,59,18.70
2010,07,31,12,00,18.60
2010,07,31,12,01,18.50
2010,07,31,12,02,18.50
2010,07,31,12,03,18.50
2010,07,31,12,04,18.40
2010,07,31,12,05,18.40
2010,07,31,12,06,18.50
2010,07,31,12,07,18.60
2010,07,31,12,08,18.70
2010,07,31,12,09,18.80
2010,07,31,12,10,18.90
2010,07,31,12,11,19.10
2010,07,31,12,12,19.10
2010,07,31,12,13,19.20
2010,07,31,12,14,19.30
2010,07,31,12,15,19.30
2010,07,31,12,16,19.40
2010,07,31,12,17,19.30
2010,07,31,12,18,19.10
2010,07,31,12,19,18.80
2010,07,31,12,20,18.50
2010,07,31,12,21,18.20
2010,07,31,12,22,18.10
2010,07,31,12,23,18.00
2010,07,31,12,24,17.90
2010,07,31,12,25,17.70
2010,07,31,12,26,17.50
2010,07,31,12,27,17.40
2010,07,31,12,28,17.20
2010,07,31,12,29,17.00
2010,07,31,12,30,16.80
2010,07,31,12,31,16.60
2010,07,31,12,32,16.40
2010,07,31,12,33,16.30
2010,07,31,12,34,16.20
2010,07,31,12,35,16.20
2010,07,31,12,36,16.30
2010,07,31,12,37,16.50
2010,07,31,12,38,16.60
2010,07,31,12,39,16.50
2010,07,31,12,40,16.40
2010,07,31,12,41,16.40
2010,07,31,12,42,16.30
2010,07,31,12,43,16.30
2010,07,31,12,44,16.30
2010,07,31,12,45,16.20
2010,07,31,12,46,16.10
2010,07,31,12,47,16.00
2010,07,31,12,48,15.90
2010,07,31,12,49,15.80
2010,07,31,12,50,15.80
2010,07,31,12,51,15.80
2010,07,31,12,52,15.80
2010,07,31,12,53,15.80
2010,07,31,12,54,15.70
2010,07,31,12,55,15.70
2010,07,31,12,56,15.80
2010,07,31,12,57,15.90
2010,07,31,12,58,15.90
2010,07,31,12,59,15.90
2010,07,31,13,00,15.80
2010,07,31,13,01,15.80
2010,07,31,13,02,15.80
2010,07,31,13,03,15.80
2010,07,31,13,04,15.80
2010,07,31,13,05,15.80
2010,07,31,13,06,15.70
2010,07,31,13,07,15.70
2010,07,31,13,08,15.60
2010,07,31,13,09,15.50
2010,07,31,13,10,15.40
2010,07,31,13,11,15.20
2010,07,31,13,12,15.10
2010,07,31,13,13,15.00
2010,07,31,13,14,14.90
2010,07,31,13,15,14.80
2010,07,31,13,16,14.80
2010,07,31,13,17,14.90
2010,07,31,13,18,14.90
2010,07,31,13,19,14.90
2010,07,31,13,20,14.90
2010,07,31,13,21,14.90
2010,07,31,13,22,15.00
2010,07,31,13,23,15.00
2010,07,31,13,24,15.20
2010,07,31,13,25,15.30
2010,07,31,13,26,15.30
2010,07,31,13,27,15.40
2010,07,31,13,28,15.50
2010,07,31,13,29,15.60
2010,07,31,13,30,15.60
2010,07,31,13,31,15.60
2010,07,31,13,32,15.60
2010,07,31,13,33,15.50
2010,07,31,13,34,15.40
2010,07,31,13,35,15.50
2010,07,31,13,36,15.30
2010,07,31,13,37,15.20
2010,07,31,13,38,15.10
2010,07,31,13,39,15.00
2010,07,31,13,40,14.90
2010,07,31,13,41,14.80
2010,07,31,13,42,14.80
2010,07,31,13,43,14.80
2010,07,31,13,44,14.80
2010,07,31,13,45,14.80
2010,07,31,13,46,14.90
2010,07,31,13,47,14.90
2010,07,31,13,48,14.90
2010,07,31,13,49,14.90
2010,07,31,13,50,15.00
2010,07,31,13,51,15.00
2010,07,31,13,52,15.00
2010,07,31,13,53,15.00
2010,07,31,13,54,14.90
2010,07,31,13,55,14.90
2010,07,31,13,56,15.00
2010,07,31,13,57,15.00
2010,07,31,13,58,15.00
2010,07,31,13,59,15.10
2010,07,31,14,00,15.10
2010,07,31,14,01,15.10
2010,07,31,14,02,15.20
2010,07,31,14,03,15.20
2010,07,31,14,04,15.30
2010,07,31,14,05,15.30
2010,07,31,14,06,15.30
2010,07,31,14,07,15.30
2010,07,31,14,08,15.30
2010,07,31,14,09,15.40
2010,07,31,14,10,15.50
2010,07,31,14,11,15.60
2010,07,31,14,12,15.70
2010,07,31,14,13,15.70
2010,07,31,14,14,15.70
2010,07,31,14,15,15.80
2010,07,31,14,16,15.90
2010,07,31,14,17,15.90
2010,07,31,14,18,16.00
2010,07,31,14,19,16.10
2010,07,31,14,20,16.10
2010,07,31,14,21,16.20
2010,07,31,14,22,16.30
2010,07,31,14,23,16.40
2010,07,31,14,24,16.50
2010,07,31,14,25,16.60
2010,07,31,14,26,16.50
2010,07,31,14,27,16.40
2010,07,31,14,28,16.40
2010,07,31,14,29,16.30
2010,07,31,14,30,16.40
2010,07,31,14,31,16.40
2010,07,31,14,32,16.40
2010,07,31,14,33,16.40
2010,07,31,14,34,16.50
2010,07,31,14,35,16.60
2010,07,31,14,36,16.60
2010,07,31,14,37,16.70
2010,07,31,14,38,16.70
2010,07,31,14,39,16.80
2010,07,31,14,40,16.90
2010,07,31,14,41,16.80
2010,07,31,14,42,16.80
2010,07,31,14,43,16.90
2010,07,31,14,44,16.80
2010,07,31,14,45,16.70
2010,07,31,14,46,16.60
2010,07,31,14,47,16.40
2010,07,31,14,48,16.30
2010,07,31,14,49,16.20
2010,07,31,14,50,16.10
2010,07,31,14,51,16.10
2010,07,31,14,52,16.10
2010,07,31,14,53,16.10
2010,07,31,14,54,16.20
2010,07,31,14,55,16.30
2010,07,31,14,56,16.30
2010,07,31,14,57,16.20
2010,07,31,14,58,16.10
2010,07,31,14,59,16.10
2010,07,31,15,00,16.10
2010,07,31,15,01,16.00
2010,07,31,15,02,15.80
2010,07,31,15,03,15.80
2010,07,31,15,04,15.70
2010,07,31,15,05,15.80
2010,07,31,15,06,15.90
2010,07,31,15,07,16.00
2010,07,31,15,08,16.10
2010,07,31,15,09,16.00
2010,07,31,15,10,15.90
2010,07,31,15,11,15.90
2010,07,31,15,12,15.80
2010,07,31,15,13,15.80
2010,07,31,15,14,15.80
2010,07,31,15,15,15.80
2010,07,31,15,16,15.80
2010,07,31,15,17,15.70
2010,07,31,15,18,15.70
2010,07,31,15,19,15.60
2010,07,31,15,20,15.60
2010,07,31,15,21,15.70
2010,07,31,15,22,15.80
2010,07,31,15,23,15.80
2010,07,31,15,24,15.80
2010,07,31,15,25,15.80
2010,07,31,15,26,15.80
2010,07,31,15,27,15.80
2010,07,31,15,28,15.80
2010,07,31,15,29,15.80
2010,07,31,15,30,15.80
2010,07,31,15,31,16.00
2010,07,31,15,32,16.10
2010,07,31,15,33,16.20
2010,07,31,15,34,16.20
2010,07,31,15,35,16.20
2010,07,31,15,36,16.20
2010,07,31,15,37,16.10
2010,07,31,15,38,16.10
2010,07,31,15,39,16.10
2010,07,31,15,40,16.00
2010,07,31,15,41,15.90
2010,07,31,15,42,15.90
2010,07,31,15,43,16.00
2010,07,31,15,44,16.10
2010,07,31,15,45,15.90
2010,07,31,15,46,15.90
2010,07,31,15,47,15.90
2010,07,31,15,48,15.80
2010,07,31,15,49,15.80
2010,07,31,15,50,15.70
2010,07,31,15,51,15.60
2010,07,31,15,52,15.50
2010,07,31,15,53,15.30
2010,07,31,15,54,15.20
2010,07,31,15,55,15.10
2010,07,31,15,56,15.00
2010,07,31,15,57,15.10
2010,07,31,15,58,15.20
2010,07,31,15,59,15.20
2010,07,31,16,00,15.20
2010,07,31,16,01,15.20
2010,07,31,16,02,15.20
2010,07,31,16,03,15.20
2010,07,31,16,04,15.20
2010,07,31,16,05,15.30
2010,07,31,16,06,15.40
2010,07,31,16,07,15.50
2010,07,31,16,08,15.60
2010,07,31,16,09,15.70
2010,07,31,16,10,15.70
2010,07,31,16,11,15.70
2010,07,31,16,12,15.60
2010,07,31,16,13,15.50
2010,07,31,16,14,15.40
2010,07,31,16,15,15.40
2010,07,31,16,16,15.50
2010,07,31,16,17,15.50
2010,07,31,16,18,15.50
2010,07,31,16,19,15.40
2010,07,31,16,20,15.40
2010,07,31,16,21,15.50
2010,07,31,16,22,15.50
2010,07,31,16,23,15.50
2010,07,31,16,24,15.50
2010,07,31,16,25,15.50
2010,07,31,16,26,15.60
2010,07,31,16,27,15.60
2010,07,31,16,28,15.70
2010,07,31,16,29,15.80
2010,07,31,16,30,15.90
2010,07,31,16,31,15.90
2010,07,31,16,32,16.00
2010,07,31,16,33,16.10
2010,07,31,16,34,16.10
2010,07,31,16,35,16.10
2010,07,31,16,36,16.10
2010,07,31,16,37,16.10
2010,07,31,16,38,16.20
2010,07,31,16,39,16.20
2010,07,31,16,40,16.30
2010,07,31,16,41,16.30
2010,07,31,16,42,16.20
2010,07,31,16,43,16.20
2010,07,31,16,44,16.30
2010,07,31,16,45,16.30
2010,07,31,16,46,16.40
2010,07,31,16,47,16.40
2010,07,31,16,48,16.40
2010,07,31,16,49,16.40
2010,07,31,16,50,16.40
2010,07,31,16,51,16.40
2010,07,31,16,52,16.40
2010,07,31,16,53,16.50
2010,07,31,16,54,16.60
2010,07,31,16,55,16.60
2010,07,31,16,56,16.60
2010,07,31,16,57,16.70
2010,07,31,16,58,16.80
2010,07,31,16,59,16.90
2010,07,31,17,00,17.00
2010,07,31,17,01,17.10
2010,07,31,17,02,17.30
2010,07,31,17,03,17.30
2010,07,31,17,04,17.40
2010,07,31,17,05,17.50
2010,07,31,17,06,17.50
2010,07,31,17,07,17.60
2010,07,31,17,08,17.60
2010,07,31,17,09,17.60
2010,07,31,17,10,17.60
2010,07,31,17,11,17.60
2010,07,31,17,12,17.60
2010,07,31,17,13,17.70
2010,07,31,17,14,17.70
2010,07,31,17,15,17.80
2010,07,31,17,16,17.90
2010,07,31,17,17,17.90
2010,07,31,17,18,18.10
2010,07,31,17,19,18.10